Regional Weather Roundup
Issued by NWS

Home | Current Version | Previous Version | Graphics & Text | Print | Product List | Glossary On
Versions: 1 2 3 4 5 6 7 8 9 10 11 12 13 14 15 16 17 18 19 20 21 22 23 24 25 26 27 28 29 30 31 32 33 34 35 36 37 38 39 40 41 42 43 44 45 46 47 48 49 50
681
ASUS44 KJAN 150310
RWRMS

MISSISSIPPI HOURLY WEATHER ROUNDUP
NATIONAL WEATHER SERVICE JACKSON MS
1000 PM CDT SUN SEP 14 2014

NOTE: "FAIR: INDICATES FEW OR NO CLOUDS BELOW 12,000 FEET WITH NO
SIGNIFICANT WEATHER AND/OR OBSTRUCTIONS TO VISIBILITY.

MSZ001>002-007>008-010>013-018>021-025>028-034>036-150400-
NORTHWEST MISSISSIPPI

CITY           SKY/WX    TMP DP  RH WIND       PRES   REMARKS
CLARKSDALE       N/A     66  63  88 CALM      30.18R
CLEVELAND      FAIR      68  63  83 N5        30.15S
GREENWOOD      PTCLDY    69  65  86 N3        30.15R
GREENVILLE     PTCLDY    70  61  73 N7        30.14S
GRENADA        FAIR      70  63  78 N6        30.16S
OLIVE BRANCH   CLEAR     63  63 100 NE3       30.19R
OXFORD         FAIR      64  63  94 CALM      30.19S
TUNICA         CLEAR     64  61  88 N5        30.18R
$$

MSZ003>006-009-014>017-022>024-029>033-037>039-150400-
NORTHEAST MISSISSIPPI

CITY           SKY/WX    TMP DP  RH WIND       PRES   REMARKS
COLUMBUS AFB   CLEAR     71  64  77 N2        30.14S
CORINTH        FAIR      63  61  94 CALM      30.18R
GOLDN TRIANGLE CLEAR     72  63  73 N5        30.15R
STARKVILLE     FAIR      72  63  73 CALM      30.14S
TUPELO         CLEAR     67  62  84 NE7       30.16R
$$

MSZ040-058-150400-
CENTRAL MISSISSIPPI

CITY           SKY/WX    TMP DP  RH WIND       PRES   REMARKS
JACKSON INTL   CLEAR     72  69  90 N3        30.13R
JACKSON HAWKNS CLEAR     76  69  79 CALM      30.13S
MERIDIAN KEY   CLEAR     74  68  81 CALM      30.13R
MERIDIAN NAS   CLEAR     77  65  66 N3        30.14R
RAYMOND        FAIR      72  66  83 CALM      30.13S HAZE
VICKSBURG      CLEAR     70  68  93 N3        30.13R
$$

MSZ059>079-150400-
SOUTH MISSISSIPPI

CITY           SKY/WX    TMP DP  RH WIND       PRES   REMARKS
BROOKHAVEN     FAIR      72  72 100 CALM      30.15R FOG
HATTIESBURG    PTCLDY    77  73  87 CALM      30.11R
MCCOMB         CLEAR     77  70  79 N5        30.12R
NATCHEZ        CLEAR     70  68  94 CALM      30.13S
PINE BELT      CLEAR     75  70  83 N5        30.13R
$$

MSZ080>082-150400-
COASTAL MISSISSIPPI

CITY           SKY/WX    TMP DP  RH WIND       PRES   REMARKS
BILOXI         CLEAR     80  75  86 NE3       30.10R
PASCAGOULA     PTCLDY    75  74  96 CALM      30.10R
GULFPORT       CLEAR     81  75  82 NE3       30.09R
$$



USA.gov is the U.S. government's official web portal to all federal, state and local government web resources and services.